+ View the NASA Portal
+ Center for Near-Earth Object Studies
IMPORTANT:
The SSD Announcement email list is now available. Major changes are coming in the near future, including possible hostname and/or URL changes. To be notified of such changes, subscribe to this email list.
Please visit
this page
for more details.
Don't show this message again
JPL Small-Body Database Browser
Search:
[
help
]
312730 (2010 RZ160)
Classification:
Main-belt Asteroid
SPK-ID:
2312730
[
Ephemeris
|
Orbit Diagram
|
Orbital Elements
|
Mission Design
|
Physical Parameters
|
Discovery Circumstances
|
Close-Approach Data
]
[ show orbit diagram ]
Orbital Elements at Epoch 2458600.5 (2019-Apr-27.0) TDB
Reference:
JPL 13
(heliocentric ecliptic J2000)
Element
Value
Uncertainty (1-sigma)
Units
e
.157095279091598
6.4738e-08
a
2.710275948085645
3.415e-08
au
q
2.284504391605885
1.9427e-07
au
i
7.530096616687003
5.5901e-06
deg
node
249.3972020329567
5.0735e-05
deg
peri
161.9512741635326
5.6326e-05
deg
M
267.7376084109116
2.5227e-05
deg
t
p
2459018.177326819462
(2020-Jun-17.67732682)
0.00011882
TDB
period
1629.741382866876
4.46
3.0802e-05
8.433e-08
d
yr
n
.2208939429191669
4.1749e-09
deg/d
Q
3.136047504565405
3.9515e-08
au
Orbit Determination Parameters
# obs. used (total)
239
data-arc span
6074 days (16.63 yr)
first obs. used
2003-01-03
last obs. used
2019-08-21
planetary ephem.
DE431
SB-pert. ephem.
SB431-N16
condition code
0
norm. resid. RMS
.50337
source
ORB
producer
Otto Matic
solution date
2019-Sep-24 06:02:16
Additional Information
Earth MOID
= 1.29654 au
Jupiter MOID
= 2.2256 au
T_jup
= 3.333
[ show covariance matrix ]
[
Ephemeris
|
Orbit Diagram
|
Orbital Elements
|
Mission Design
|
Physical Parameters
|
Discovery Circumstances
|
Close-Approach Data
]
Physical Parameter Table
Parameter
Symbol
Value
Units
Sigma
Reference
Notes
absolute magnitude
H
16.3
n/a
MPO450244
312730 (2010 RZ160)
Discovered 2003-Jan-03 by Spacewatch at Kitt Peak
Reference:
20120109/Numbers.arc
Last Updated:
2012-01-11
[ show close-approach data ]
Alternate Designations
2010 RZ160
= 2003 AG15
[
Ephemeris
|
Orbit Diagram
|
Orbital Elements
|
Mission Design
|
Physical Parameters
|
Discovery Circumstances
|
Close-Approach Data
]
2019-Dec-14 10:52 UT
(server date/time)
Site Manager:
Ryan S. Park
Webmaster
:
Alan B. Chamberlin